Terminal Aerodrome Forecast
Issued by NWS Cleveland, OH

Home | Current Version | Previous Version | Text Only | Print | Product List | Glossary Off
Versions: 1 2 3 4 5 6 7 8 9 10 11 12 13 14 15 16

918
FTUS41 KCLE 261048 AAB
TAFYNG
TAF AMD
KYNG 261048Z 2611/2706 28006KT P6SM SCT050
     FM261400 32006KT P6SM SCT250
     FM270000 34004KT P6SM SCT250=

USA.gov is the U.S. government's official web portal to all federal, state and local government web resources and services.